Home > Weather > Meyrin > Past weeks

Flag for Switzerland Weather for the Past 2 Weeks in Meyrin, Geneva, Switzerland

Now
72 °F

Passing clouds.


Feels Like: 76 °F
Forecast: 42 / 71 °F
Wind: 6 mph from East

Location: Geneva Cointrin Airport

Current Time: May 6, 2016 at 5:54:56 PM

Latest Report: May 6, 2016 at 5:20 PM


Visibility: N/A

Pressure: 29.89 "Hg

Humidity: 25%

Dew Point: 34 °F

Location of MeyrinLocation

Historic Weather in Meyrin — Graph

°F

Meyrin Temperature Yesterday

Maximum temperature yesterday: 66 °F (at 5:50 PM)
Minimum temperature yesterday: 37 °F (at 5:50 AM)
Average temperature yesterday: 52 °F

High & Low Weather Summary for the Past Weeks

 TemperatureHumidityPressure
High72 °F (May 6, 3:50 PM)94% (Apr 22, 10:50 PM)30.30 "Hg (Apr 22, 10:50 PM)
Low32 °F (Apr 28, 2:50 AM)20% (May 6, 4:20 PM)29.74 "Hg (Apr 26, 6:20 PM)
Average49 °F64%30.02 "Hg
* Reported Apr 21 4:20 PM — May 6 4:20 PM, Meyrin, Weather by CustomWeather, © 2016

Note: Actual official high and low records may vary slightly from our data, if they occured in-between our weather recording intervals... More about our weather records

Advertising

Meyrin Weather History for the Previous 24 Hours

Scroll right to see more
 ConditionsComfort  
Time TempWeatherWind HumidityBarometerVisibility
4:20 PM
Fri, May 6
72 °FPassing clouds.6 mph20%29.92 "HgN/A
3:50 PM72 °FPassing clouds.2 mph25%29.92 "HgN/A
3:20 PM70 °FPassing clouds.7 mph25%29.95 "HgN/A
2:50 PM68 °FPassing clouds.8 mph28%29.95 "HgN/A
2:20 PM68 °FScattered clouds.6 mph28%29.95 "HgN/A
1:50 PM68 °FScattered clouds.2 mph26%29.98 "HgN/A
1:20 PM68 °FScattered clouds.6 mph28%29.98 "HgN/A
12:50 PM66 °FPassing clouds.6 mph32%30.01 "HgN/A
12:20 PM64 °FPassing clouds.6 mph37%30.01 "HgN/A
11:50 AM63 °FSunny.5 mph42%30.01 "Hg10 mi
11:20 AM61 °FPassing clouds.3 mph48%30.04 "HgN/A
10:50 AM61 °FPassing clouds.3 mph45%30.04 "HgN/A
10:20 AM59 °FSunny.3 mph51%30.04 "Hg10 mi
9:50 AM57 °FPassing clouds.3 mph55%30.04 "HgN/A
9:20 AM54 °FSunny.1 mph72%30.04 "Hg10 mi
8:50 AM52 °FSunny.1 mph72%30.04 "Hg10 mi
8:20 AM50 °FSunny.1 mph76%30.04 "Hg10 mi
7:50 AM48 °FSunny.1 mph82%30.04 "Hg10 mi
7:20 AM43 °FSunny.1 mph87%30.04 "Hg10 mi
6:50 AM41 °FClear.1 mph93%30.04 "Hg10 mi
6:20 AM41 °FClear.1 mph87%30.04 "Hg10 mi
5:50 AM41 °FClear.1 mph93%30.04 "Hg10 mi
5:20 AM41 °FClear.1 mph93%30.04 "Hg10 mi
4:50 AM43 °FClear.1 mph87%30.04 "Hg10 mi
4:20 AM43 °FClear.1 mph87%30.04 "Hg10 mi
3:50 AM43 °FClear.1 mph87%30.04 "Hg10 mi
2:50 AM45 °FClear.1 mph81%30.04 "Hg10 mi
2:20 AM45 °FClear.1 mph87%30.04 "Hg10 mi
1:50 AM46 °FClear.2 mph82%30.04 "Hg10 mi
1:20 AM46 °FClear.1 mph76%30.04 "Hg10 mi
12:50 AM48 °FClear.1 mph76%30.04 "Hg10 mi
12:20 AM48 °FClear.2 mph76%30.04 "Hg10 mi
11:50 PM
Thu, May 5
50 °FClear.2 mph71%30.04 "Hg10 mi
11:20 PM50 °FClear.3 mph71%30.04 "Hg10 mi
10:50 PM50 °FClear.No wind71%30.04 "Hg10 mi
10:20 PM52 °FClear.1 mph67%30.04 "Hg10 mi
9:50 PM54 °FClear.2 mph58%30.04 "Hg10 mi
9:20 PM55 °FSunny.1 mph59%30.04 "Hg10 mi
8:50 PM59 °FSunny.2 mph45%30.01 "Hg10 mi
8:20 PM63 °FSunny.2 mph37%30.01 "Hg10 mi
7:50 PM64 °FSunny.3 mph32%30.01 "Hg10 mi
7:20 PM66 °FSunny.7 mph26%30.01 "Hg10 mi
6:50 PM66 °FSunny.7 mph26%30.01 "Hg10 mi
6:20 PM66 °FSunny.8 mph28%30.01 "Hg10 mi
5:50 PM66 °FSunny.9 mph22%30.01 "Hg10 mi
5:20 PM64 °FPassing clouds.8 mph24%30.04 "HgN/A
Weather by CustomWeather, © 2016

See weather overviewHow to use our weather pages